GW2419 Weather Reports


time (UTC)temp
F
wind
direction
speed
knots
gust
knots
rain 1hr
in
rain 24hr
in
rain mn
in
humidity
%
barometer
mb
20260901163527 81 89 0.0 4.3 0.00 0.00 0.00 54 1015.4
20260901163045 81 0 0.9 4.3 0.00 0.00 0.00 54 1015.3
20260901162522 80 32 0.0 1.7 0.00 0.00 0.00 52 1015.5
20260901162025 80 0 0.0 1.7 0.00 0.00 0.00 53 1015.5
20260901161545 80 360 0.0 1.7 0.00 0.00 0.00 53 1015.5
20260901161043 80 0 0.0 2.6 0.00 0.00 0.00 55 1015.4
20260901160525 80 90 0.0 2.6 0.00 0.00 0.00 55 1015.5
20260901160045 80 59 0.0 1.7 0.00 0.00 0.00 56 1015.6
20260901155525 80 0 0.0 1.7 0.00 0.00 0.00 58 1015.5
20260901155023 79 0 0.0 1.7 0.00 0.00 0.00 55 1015.5
20260901154539 79 360 0.0 1.7 0.00 0.00 0.00 59 1015.7
20260901154024 79 0 0.0 1.7 0.00 0.00 0.00 59 1015.6
20260901153532 79 0 0.0 1.7 0.00 0.00 0.00 59 1015.5
20260901153046 79 360 0.0 1.7 0.00 0.00 0.00 60 1015.5
20260901152522 79 0 0.0 1.7 0.00 0.00 0.00 62 1015.6
20260901152025 79 0 0.0 1.7 0.00 0.00 0.00 62 1015.6
20260901151546 78 0 0.0 1.7 0.00 0.00 0.00 61 1015.6
20260901151030 78 0 0.0 1.7 0.00 0.00 0.00 62 1015.6
20260901150530 78 0 0.0 1.7 0.00 0.00 0.00 63 1015.6
20260901150044 78 360 0.0 1.7 0.00 0.00 0.00 63 1015.6
20260901145524 77 0 0.0 1.7 0.00 0.00 0.00 64 1015.5
20260901145026 77 360 0.0 1.7 0.00 0.00 0.00 67 1015.6
20260901144547 77 360 0.0 1.7 0.00 0.00 0.00 65 1015.7
20260901144027 76 0 0.0 0.9 0.00 0.00 0.00 69 1015.8
20260901143527 76 0 0.0 1.7 0.00 0.00 0.00 71 1015.8
20260901143049 75 0 0.0 1.7 0.00 0.00 0.00 71 1015.8
20260901142525 75 0 0.0 1.7 0.00 0.00 0.00 72 1015.9
20260901142023 74 82 0.0 1.7 0.00 0.00 0.00 72 1015.9
20260901141602 74 80 0.0 1.7 0.00 0.00 0.00 74 1015.8
20260901141026 74 79 0.0 0.9 0.00 0.00 0.00 77 1015.8
20260901140526 73 0 0.0 0.9 0.00 0.00 0.00 77 1015.9
20260901140047 73 0 0.0 0.9 0.00 0.00 0.00 79 1015.7
20260901135523 72 0 0.0 1.7 0.00 0.00 0.00 80 1015.7
20260901135024 71 0 0.0 1.7 0.00 0.00 0.00 81 1015.8
20260901134541 71 0 0.0 0.9 0.00 0.00 0.00 82 1015.9
20260901134024 70 0 0.0 1.7 0.00 0.00 0.00 86 1015.8
20260901133527 69 0 0.0 1.7 0.00 0.00 0.00 86 1016.0
20260901133103 69 0 0.0 0.0 0.00 0.00 0.00 88 1015.8
20260901132527 68 0 0.0 1.7 0.00 0.00 0.00 89 1015.7
20260901132024 68 0 0.0 1.7 0.00 0.00 0.00 90 1015.6
20260901131548 67 0 0.0 0.9 0.00 0.00 0.00 92 1015.6
20260901131026 67 0 0.0 0.9 0.00 0.00 0.00 93 1015.6
20260901130523 66 0 0.0 0.9 0.00 0.00 0.00 94 1015.6
20260901130046 66 0 0.0 0.9 0.00 0.00 0.00 94 1015.6
20260901125525 65 0 0.0 0.0 0.00 0.00 0.00 94 1015.5
20260901125028 65 0 0.0 0.0 0.00 0.00 0.00 93 1015.6
20260901124549 64 0 0.0 0.0 0.00 0.00 0.00 93 1015.5
20260901124030 64 0 0.0 0.0 0.00 0.00 0.00 93 1015.6
20260901123526 64 0 0.0 0.0 0.00 0.00 0.00 93 1015.5
20260901123045 64 0 0.0 0.0 0.00 0.00 0.00 93 1015.6
20260901122527 64 0 0.0 0.0 0.00 0.00 0.00 93 1015.5
20260901122024 64 0 0.0 0.0 0.00 0.00 0.00 92 1015.5
20260901121540 63 0 0.0 0.0 0.00 0.00 0.00 92 1015.5
20260901121025 63 0 0.0 0.0 0.00 0.00 0.00 92 1015.4
20260901120523 63 0 0.0 0.0 0.00 0.00 0.00 92 1015.5
20260901120058 63 0 0.0 0.0 0.00 0.00 0.00 92 1015.4
20260901115526 63 0 0.0 0.0 0.00 0.00 0.00 92 1015.4
20260901115025 63 0 0.0 0.0 0.00 0.00 0.00 92 1015.2
20260901114548 63 0 0.0 0.0 0.00 0.00 0.00 92 1015.1
20260901114026 63 0 0.0 0.0 0.00 0.00 0.00 92 1015.2
20260901113524 63 0 0.0 0.0 0.00 0.00 0.00 92 1015.1
20260901113052 63 0 0.0 0.0 0.00 0.00 0.00 92 1015.1
20260901112524 63 0 0.0 0.0 0.00 0.00 0.00 91 1015.0
20260901112024 63 0 0.0 0.0 0.00 0.00 0.00 91 1015.0
20260901111553 64 0 0.0 0.0 0.00 0.00 0.00 91 1014.9
20260901111023 64 0 0.0 0.0 0.00 0.00 0.00 91 1014.8
20260901110525 64 0 0.0 0.0 0.00 0.00 0.00 91 1014.7
20260901110055 64 0 0.0 0.0 0.00 0.00 0.00 91 1014.7
20260901105523 64 0 0.0 0.0 0.00 0.00 0.00 91 1014.6
20260901105026 64 0 0.0 0.0 0.00 0.00 0.00 91 1014.6
20260901104552 63 0 0.0 0.0 0.00 0.00 0.00 91 1014.6
20260901104024 63 0 0.0 0.0 0.00 0.00 0.00 91 1014.3
20260901103525 63 0 0.0 0.0 0.00 0.00 0.00 91 1014.2
20260901103046 63 0 0.0 0.0 0.00 0.00 0.00 90 1014.3
20260901102524 63 0 0.0 0.0 0.00 0.00 0.00 90 1014.4
20260901102023 64 0 0.0 0.0 0.00 0.00 0.00 90 1014.4
20260901101550 64 0 0.0 0.0 0.00 0.00 0.00 90 1014.5
20260901101023 64 0 0.0 0.0 0.00 0.00 0.00 90 1014.4
20260901100523 64 0 0.0 0.0 0.00 0.00 0.00 90 1014.3
20260901100047 64 0 0.0 0.0 0.00 0.00 0.00 90 1014.3
20260901095525 64 0 0.0 0.0 0.00 0.00 0.00 90 1014.3
20260901095025 64 0 0.0 0.0 0.00 0.00 0.00 90 1014.2
20260901094547 64 0 0.0 0.0 0.00 0.00 0.00 90 1014.1
20260901094025 64 0 0.0 0.0 0.00 0.00 0.00 90 1014.3
20260901093526 64 0 0.0 0.0 0.00 0.00 0.00 89 1014.2
20260901093051 64 0 0.0 0.0 0.00 0.00 0.00 90 1014.1
20260901092525 64 0 0.0 0.0 0.00 0.00 0.00 90 1014.2
20260901092026 64 0 0.0 0.0 0.00 0.00 0.00 89 1014.0
20260901091559 64 0 0.0 0.0 0.00 0.00 0.00 89 1014.0
20260901091028 64 0 0.0 0.0 0.00 0.00 0.00 89 1014.0
20260901090526 64 0 0.0 0.0 0.00 0.00 0.00 89 1014.2
20260901090049 64 0 0.0 0.0 0.00 0.00 0.00 89 1014.1
20260901085521 64 0 0.0 0.0 0.00 0.00 0.00 89 1014.2
20260901085026 64 0 0.0 0.0 0.00 0.00 0.00 88 1014.1
20260901084544 64 0 0.0 0.0 0.00 0.00 0.00 88 1014.1
20260901084024 65 0 0.0 0.0 0.00 0.00 0.00 88 1014.1
20260901083528 65 0 0.0 0.0 0.00 0.00 0.00 88 1014.1
20260901083041 65 0 0.0 0.0 0.00 0.00 0.00 88 1014.2
20260901082523 65 0 0.0 0.0 0.00 0.00 0.00 87 1014.0
20260901082023 65 0 0.0 0.0 0.00 0.00 0.00 87 1014.1
20260901081549 65 0 0.0 0.0 0.00 0.00 0.00 87 1014.2
20260901081023 65 0 0.0 0.0 0.00 0.00 0.00 87 1014.2
20260901080522 65 0 0.0 0.0 0.00 0.00 0.00 87 1014.2
20260901080047 65 0 0.0 0.0 0.00 0.00 0.00 87 1014.3
20260901075527 65 0 0.0 0.0 0.00 0.00 0.00 87 1014.3
20260901075029 66 0 0.0 0.0 0.00 0.00 0.00 86 1014.2
20260901074550 66 0 0.0 0.0 0.00 0.00 0.00 86 1014.3
20260901074025 66 0 0.0 0.0 0.00 0.00 0.00 86 1014.3
20260901073529 66 0 0.0 0.0 0.00 0.00 0.00 86 1014.3
20260901073044 66 0 0.0 0.0 0.00 0.00 0.00 86 1014.5
20260901072524 66 0 0.0 0.0 0.00 0.00 0.00 87 1014.4
20260901072027 66 0 0.0 0.0 0.00 0.00 0.00 87 1014.4
20260901071601 66 0 0.0 0.0 0.00 0.00 0.00 86 1014.6
20260901071022 66 0 0.0 0.0 0.00 0.00 0.00 86 1014.5
20260901070522 67 0 0.0 0.0 0.00 0.00 0.00 86 1014.6
20260901070103 67 0 0.0 0.0 0.00 0.00 0.00 87 1014.6
20260901065525 67 0 0.0 0.0 0.00 0.00 0.00 87 1014.6
20260901065022 67 0 0.0 0.0 0.00 0.00 0.00 86 1014.6
20260901064545 67 0 0.0 0.0 0.00 0.00 0.00 86 1014.6
20260901064024 67 0 0.0 0.0 0.00 0.00 0.00 86 1014.7
20260901063526 67 0 0.0 0.0 0.00 0.00 0.00 86 1014.7
20260901063040 67 0 0.0 0.0 0.00 0.00 0.00 86 1014.7
20260901062524 67 0 0.0 0.0 0.00 0.00 0.00 86 1014.9
20260901062025 67 0 0.0 0.0 0.00 0.00 0.00 86 1014.7
20260901061552 67 0 0.0 0.0 0.00 0.00 0.00 86 1014.6
20260901061028 68 0 0.0 0.0 0.00 0.00 0.00 86 1014.7
20260901060525 68 0 0.0 0.0 0.00 0.00 0.00 85 1014.6
20260901060043 68 0 0.0 0.0 0.00 0.00 0.00 85 1014.6
20260901055527 68 0 0.0 0.0 0.00 0.00 0.00 85 1014.6
20260901055026 68 0 0.0 0.0 0.00 0.00 0.00 85 1014.6
20260901054546 68 0 0.0 0.0 0.00 0.00 0.00 85 1014.6
20260901054027 68 0 0.0 0.0 0.00 0.00 0.00 84 1014.4
20260901053527 68 0 0.0 0.0 0.00 0.00 0.00 84 1014.4
20260901053046 68 0 0.0 0.0 0.00 0.00 0.00 83 1014.3
20260901052524 69 0 0.0 0.0 0.00 0.00 0.00 83 1014.3
20260901052028 69 0 0.0 0.0 0.00 0.00 0.00 83 1014.3
20260901051545 69 0 0.0 0.0 0.00 0.00 0.00 83 1014.3
20260901051023 69 0 0.0 0.0 0.00 0.00 0.00 82 1014.2
20260901050523 69 0 0.0 0.0 0.00 0.00 0.00 82 1014.1
20260901050041 69 0 0.0 0.0 0.00 0.00 0.00 82 1014.1
20260901045523 69 0 0.0 0.0 0.00 0.00 0.00 82 1014.0
20260901045029 69 0 0.0 0.0 0.00 0.00 0.00 82 1014.0
20260901044548 70 0 0.0 0.0 0.00 0.00 0.00 81 1014.0
20260901044024 70 0 0.0 0.0 0.00 0.00 0.00 81 1014.0
20260901043524 70 0 0.0 0.0 0.00 0.00 0.00 80 1014.0
20260901043107 70 0 0.0 0.0 0.00 0.00 0.00 80 1014.0
20260901042527 70 0 0.0 0.0 0.00 0.00 0.00 80 1013.9
20260901042025 70 0 0.0 0.0 0.00 0.00 0.00 80 1013.8
20260901041544 70 0 0.0 0.0 0.00 0.00 0.00 79 1014.0
20260901041023 71 0 0.0 0.0 0.00 0.00 0.00 79 1014.0
20260901040523 71 0 0.0 0.0 0.00 0.00 0.00 78 1014.0
20260901040046 71 0 0.0 0.0 0.00 0.00 0.00 78 1014.0
20260901035524 71 0 0.0 0.0 0.00 0.00 0.00 78 1013.9
20260901035024 71 0 0.0 0.0 0.00 0.00 0.00 78 1013.9
20260901034555 71 0 0.0 0.0 0.00 0.00 0.00 77 1014.0
20260901034022 71 0 0.0 0.0 0.00 0.00 0.00 77 1014.0
20260901033524 72 0 0.0 0.0 0.00 0.00 0.00 77 1013.9
20260901033104 72 0 0.0 0.0 0.00 0.00 0.00 77 1013.9
20260901032521 72 0 0.0 0.0 0.00 0.00 0.00 76 1014.0
20260901032023 72 0 0.0 0.0 0.00 0.00 0.00 76 1013.8
20260901031604 72 0 0.0 0.0 0.00 0.00 0.00 76 1013.9
20260901031027 72 0 0.0 0.0 0.00 0.00 0.00 76 1013.8
20260901030528 72 0 0.0 0.0 0.00 0.00 0.00 76 1013.8
20260901030045 72 0 0.0 0.0 0.00 0.00 0.00 75 1013.8
20260901025529 72 0 0.0 0.0 0.00 0.00 0.00 75 1013.8
20260901025025 73 0 0.0 0.0 0.00 0.00 0.00 73 1013.8
20260901024547 73 0 0.0 0.0 0.00 0.00 0.00 72 1013.8
20260901024025 73 0 0.0 0.0 0.00 0.00 0.00 72 1013.6
20260901023522 73 0 0.0 0.0 0.00 0.00 0.00 72 1013.6
20260901023046 73 0 0.0 0.0 0.00 0.00 0.00 72 1013.6
20260901022529 73 0 0.0 0.0 0.00 0.00 0.00 71 1013.6
20260901022025 74 0 0.0 0.0 0.00 0.00 0.00 69 1013.6
20260901021542 74 0 0.0 0.0 0.00 0.00 0.00 69 1013.5
20260901021023 74 0 0.0 0.0 0.00 0.00 0.00 68 1013.5
20260901020524 74 0 0.0 0.0 0.00 0.00 0.00 68 1013.4
20260901020046 75 0 0.0 0.0 0.00 0.00 0.00 68 1013.5
20260901015523 75 0 0.0 0.0 0.00 0.00 0.00 67 1013.4
20260901015024 75 0 0.0 0.0 0.00 0.00 0.00 67 1013.2
20260901014548 75 0 0.0 0.0 0.00 0.00 0.00 66 1013.3
20260901014024 76 0 0.0 0.0 0.00 0.00 0.00 65 1013.2
20260901013524 76 0 0.0 0.0 0.00 0.00 0.00 64 1013.3
20260901013049 76 0 0.0 0.0 0.00 0.00 0.00 64 1013.2
20260901012525 77 0 0.0 0.0 0.00 0.00 0.00 63 1013.0
20260901012024 77 0 0.0 0.0 0.00 0.00 0.00 63 1012.9
20260901011544 77 0 0.0 0.0 0.00 0.00 0.00 61 1013.0
20260901011026 78 0 0.0 0.0 0.00 0.00 0.00 61 1013.0
20260901010526 78 0 0.0 0.0 0.00 0.00 0.00 60 1012.9
20260901010042 79 0 0.0 0.0 0.00 0.00 0.00 60 1013.0
20260901005524 79 0 0.0 0.0 0.00 0.00 0.00 59 1012.9
20260901005023 79 0 0.0 0.0 0.00 0.00 0.00 59 1012.9
20260901004550 80 0 0.0 0.0 0.00 0.00 0.00 57 1012.8
20260901004022 80 0 0.0 0.0 0.00 0.00 0.00 58 1012.8
20260901003522 80 0 0.0 0.0 0.00 0.00 0.00 56 1012.8
20260901003057 81 0 0.0 0.0 0.00 0.00 0.00 56 1012.8
20260901002523 81 0 0.0 0.0 0.00 0.00 0.00 56 1012.8
20260901002025 82 0 0.0 0.0 0.00 0.00 0.00 55 1012.8
20260901001559 82 0 0.0 0.0 0.00 0.00 0.00 53 1012.9
20260901001024 82 0 0.0 0.0 0.00 0.00 0.00 54 1012.8
20260901000522 83 0 0.0 0.0 0.00 0.00 0.00 53 1012.7
20260901000050 83 0 0.0 0.0 0.00 0.00 0.00 52 1012.7
20260831235530 83 0 0.0 0.0 0.00 0.00 0.00 53 1012.7
20260831235024 84 0 0.0 0.0 0.00 0.00 0.00 51 1012.4
20260831234544 84 0 0.0 0.0 0.00 0.00 0.00 50 1012.5
20260831234023 84 0 0.0 0.0 0.00 0.00 0.00 49 1012.3
20260831233524 84 0 0.0 0.0 0.00 0.00 0.00 49 1012.2
20260831233042 85 0 0.0 0.0 0.00 0.00 0.00 48 1012.3
20260831232526 85 0 0.0 0.0 0.00 0.00 0.00 48 1012.3
20260831232024 85 0 0.0 0.0 0.00 0.00 0.00 46 1012.4
20260831231548 85 0 0.0 0.0 0.00 0.00 0.00 46 1012.3
20260831231026 86 0 0.0 0.0 0.00 0.00 0.00 47 1012.4
20260831230524 86 0 0.0 0.0 0.00 0.00 0.00 46 1012.3
20260831230050 86 0 0.0 0.0 0.00 0.00 0.00 46 1012.3
20260831225526 86 0 0.0 0.0 0.00 0.00 0.00 44 1012.3
20260831225024 86 0 0.0 0.0 0.00 0.00 0.00 43 1012.4
20260831224545 86 0 0.0 0.0 0.00 0.00 0.00 43 1012.2
20260831224025 86 0 0.0 0.9 0.00 0.00 0.00 40 1012.2
20260831223525 87 0 0.0 0.9 0.00 0.00 0.00 41 1012.2
20260831223043 86 0 0.0 0.9 0.00 0.00 0.00 40 1012.2
20260831222525 86 0 0.0 0.9 0.00 0.00 0.00 42 1012.2
20260831222033 86 0 0.0 0.0 0.00 0.00 0.00 43 1012.1
20260831221558 86 0 0.0 0.0 0.00 0.00 0.00 41 1012.1
20260831221022 86 0 0.0 0.0 0.00 0.00 0.00 39 1012.1
20260831220524 87 0 0.0 0.9 0.00 0.00 0.00 38 1012.0
20260831220047 87 0 0.0 0.9 0.00 0.00 0.00 39 1012.0
20260831215523 87 0 0.0 0.9 0.00 0.00 0.00 39 1011.9
20260831215024 87 0 0.0 1.7 0.00 0.00 0.00 38 1011.8
20260831214555 87 0 0.0 1.7 0.00 0.00 0.00 38 1011.9
20260831214022 88 0 0.0 1.7 0.00 0.00 0.00 37 1011.9
20260831213528 88 0 0.0 0.9 0.00 0.00 0.00 39 1011.8
20260831213051 88 0 0.0 1.7 0.00 0.00 0.00 39 1011.9
20260831212524 88 0 0.0 1.7 0.00 0.00 0.00 40 1011.9
20260831212025 88 0 0.0 0.9 0.00 0.00 0.00 40 1011.8
20260831211548 88 0 0.0 3.5 0.00 0.00 0.00 42 1011.8
20260831211022 88 0 0.0 3.5 0.00 0.00 0.00 42 1011.7
20260831210523 88 0 0.0 2.6 0.00 0.00 0.00 43 1011.8
20260831210047 88 0 0.0 2.6 0.00 0.00 0.00 43 1011.8
20260831205522 88 348 0.0 2.6 0.00 0.00 0.00 42 1011.8
20260831205027 88 0 0.0 0.9 0.00 0.00 0.00 45 1011.8
20260831204553 88 0 0.0 0.9 0.00 0.00 0.00 44 1011.8
20260831204022 88 0 0.0 1.7 0.00 0.00 0.00 44 1011.7
20260831203522 88 0 0.0 4.3 0.00 0.00 0.00 45 1011.8
20260831203058 88 0 0.0 4.3 0.00 0.00 0.00 45 1011.8
20260831202524 88 216 0.0 2.6 0.00 0.00 0.00 45 1011.9
20260831202024 88 0 0.0 1.7 0.00 0.00 0.00 47 1012.0
20260831201547 88 0 0.0 2.6 0.00 0.00 0.00 46 1011.9
20260831201023 87 0 0.0 3.5 0.00 0.00 0.00 46 1012.0
20260831200523 87 327 0.0 3.5 0.00 0.00 0.00 50 1012.0
20260831200046 87 0 0.0 1.7 0.00 0.00 0.00 53 1011.9
20260831195524 86 0 0.0 2.6 0.00 0.00 0.00 52 1011.9
20260831195021 86 110 0.0 2.6 0.00 0.00 0.00 52 1011.9
20260831194545 86 0 0.0 1.7 0.00 0.00 0.00 54 1011.9
20260831194027 86 0 0.0 1.7 0.00 0.00 0.00 56 1011.9
20260831193523 85 295 0.0 1.7 0.00 0.00 0.00 56 1011.9
20260831193042 85 0 0.0 1.7 0.00 0.00 0.00 56 1012.0
20260831192528 85 338 0.0 2.6 0.00 0.00 0.00 58 1011.9
20260831192024 85 257 0.0 2.6 0.00 0.00 0.00 59 1011.9
20260831191557 85 0 0.0 5.2 0.00 0.00 0.00 59 1011.9
20260831191024 85 0 0.9 5.2 0.00 0.00 0.00 60 1011.9
20260831190523 84 0 0.0 2.6 0.00 0.00 0.00 59 1011.9
20260831190050 84 0 0.0 2.6 0.00 0.00 0.00 61 1012.0
20260831185522 84 265 0.0 1.7 0.00 0.00 0.00 60 1011.9
20260831185027 84 186 0.0 2.6 0.00 0.00 0.00 60 1011.8
20260831184550 84 0 0.0 2.6 0.00 0.00 0.00 60 1011.7
20260831184031 83 0 0.0 2.6 0.00 0.00 0.00 60 1011.9
20260831183529 83 0 0.0 4.3 0.00 0.00 0.00 61 1011.8
20260831183042 83 103 0.9 4.3 0.00 0.00 0.00 60 1011.9
20260831182525 83 188 0.0 4.3 0.00 0.00 0.00 61 1011.9
20260831182026 83 0 0.0 4.3 0.00 0.00 0.00 62 1011.9
20260831181554 83 0 0.0 1.7 0.00 0.00 0.00 62 1011.9
20260831181022 83 0 0.0 1.7 0.00 0.00 0.00 63 1012.1
20260831180527 83 0 0.0 2.6 0.00 0.00 0.00 63 1012.1
20260831180047 83 313 0.0 3.5 0.00 0.00 0.00 65 1012.1
20260831175524 83 328 0.0 3.5 0.00 0.00 0.00 67 1012.0
20260831175026 83 0 0.0 3.5 0.00 0.00 0.00 70 1012.0
20260831174559 82 102 0.0 2.6 0.00 0.00 0.00 70 1012.1
20260831174030 82 0 0.0 3.5 0.00 0.00 0.00 71 1012.0
20260831173527 82 333 0.0 3.5 0.00 0.00 0.00 72 1012.2
20260831173106 82 0 0.0 3.5 0.00 0.00 0.00 71 1012.2
20260831172522 82 0 0.0 1.7 0.00 0.00 0.00 74 1012.2
20260831172029 82 0 0.0 1.7 0.00 0.00 0.00 74 1012.3
20260831171547 82 0 0.0 1.7 0.00 0.00 0.00 73 1012.3
20260831171022 82 229 0.0 2.6 0.00 0.00 0.00 74 1012.3
20260831170525 82 0 0.0 2.6 0.00 0.00 0.00 74 1012.3
20260831170056 82 0 0.0 2.6 0.00 0.00 0.00 74 1012.2
20260831165524 82 315 0.0 2.6 0.00 0.00 0.00 75 1012.2
20260831165026 82 0 0.0 2.6 0.00 0.00 0.00 75 1012.3
20260831164559 82 291 0.0 2.6 0.00 0.00 0.00 75 1012.3
20260831164023 83 78 0.0 1.7 0.00 0.00 0.00 74 1012.2